Regional Weather Roundup
Issued by NWS Little Rock, AR

Home | Current Version | Previous Version | Graphics & Text | Print | Product List | Glossary On
Versions: 1 2 3 4 5 6 7 8 9 10 11 12 13 14 15 16 17 18 19 20 21 22 23 24 25 26 27 28 29 30
000
ASUS44 KLZK 221205
RWRLZK

WEATHER ROUNDUP FOR ARKANSAS
NATIONAL WEATHER SERVICE LITTLE ROCK AR
700 AM CDT WED OCT 22 2014

NOTE: "FAIR" INDICATES FEW OR NO CLOUDS BELOW 12,000 FEET WITH NO
SIGNIFICANT WEATHER AND/OR OBSTRUCTIONS TO VISIBILITY.

ARZ001-003-010-029-221300-
NORTHWEST ARKANSAS

CITY           SKY/WX    TMP DP  RH WIND       PRES   REMARKS
FAYETTEVILLE   CLEAR     44  44 100 CALM      30.17R
6HR MIN TEMP:  44; 6HR MAX TEMP:  48;

FORT SMITH     CLEAR     54  52  93 E7        30.15R
6HR MIN TEMP:  54; 6HR MAX TEMP:  60;

HARRISON       CLEAR     47  46  97 SE7       30.21R
6HR MIN TEMP:  47; 6HR MAX TEMP:  55;

BENTONVILLE    CLEAR     54  48  82 E5        30.17R
6HR MIN TEMP:  54; 6HR MAX TEMP:  55;

ROGERS         CLEAR     53  48  83 E9        30.18R
6HR MIN TEMP:  53; 6HR MAX TEMP:  57;

SILOAM SPGS    CLEAR     52  45  76 E3        30.17R
6HR MIN TEMP:  52; 6HR MAX TEMP:  57;

HIGHFILL       CLEAR     50  49  96 CALM      30.16R
6HR MIN TEMP:  50; 6HR MAX TEMP:  56;

SPRINGDALE     PTCLDY    50  48  93 E6        30.18R
$$

ARZ004-005-016-221300-
NORTH CENTRAL ARKANSAS

CITY           SKY/WX    TMP DP  RH WIND       PRES   REMARKS
BATESVILLE     CLEAR     46  45  93 CALM      30.23R
6HR MIN TEMP:  45; 6HR MAX TEMP:  52;

FLIPPIN        CLEAR     45  39  81 CALM      30.22S
6HR MIN TEMP:  45; 6HR MAX TEMP:  48;

MTN HOME       CLEAR     47  45  93 E6        30.21S
6HR MIN TEMP:  47; 6HR MAX TEMP:  54;

$$

ARZ040-041-221300-
WEST CENTRAL ARKANSAS

CITY           SKY/WX    TMP DP  RH WIND       PRES   REMARKS
MENA           CLOUDY    50  50 100 CALM      30.17S VSB 1/2
MOUNT IDA      FOG       50  49  96 W3        30.15R VSB 1/4
6HR MIN TEMP:  50; 6HR MAX TEMP:  53;

$$

ARZ009-017-025-026-028-221300-
NORTHEAST ARKANSAS

CITY           SKY/WX    TMP DP  RH WIND       PRES   REMARKS
CORNING        FAIR      46  43  87 NE7       30.25S
JONESBORO      CLEAR     49  45  86 NE6       30.23R
6HR MIN TEMP:  49; 6HR MAX TEMP:  56;

NEWPORT        CLEAR     45  44  96 N5        30.24R
6HR MIN TEMP:  45; 6HR MAX TEMP:  53;

WALNUT RIDGE   CLEAR     46  37  71 N8        30.24R
6HR MIN TEMP:  46; 6HR MAX TEMP:  54;

BLYTHEVILLE    CLEAR     45  43  93 NE5       30.23R
6HR MIN TEMP:  43; 6HR MAX TEMP:  53;

$$

ARZ022-023-033-042-044-221300-
CENTRAL ARKANSAS

CITY           SKY/WX    TMP DP  RH WIND       PRES   REMARKS
LITTLE ROCK    CLEAR     51  46  83 NE7       30.19R
6HR MIN TEMP:  51; 6HR MAX TEMP:  56;

N LITTLE ROCK    N/A     53  49  87 NE12      30.19R
6HR MIN TEMP:  53; 6HR MAX TEMP:  60;

JACKSONVILLE   CLEAR     50  47  89 E7        30.19R
6HR MIN TEMP:  45; 6HR MAX TEMP:  51;

SEARCY         CLEAR     50  46  86 NW5       30.23R
6HR MIN TEMP:  47; 6HR MAX TEMP:  55;

HOT SPRINGS    LGT RAIN  50  49  96 CALM      30.18R VSB 1/4
6HR MIN TEMP:  48; 6HR MAX TEMP:  55; 6HR PCP: TRACE;

RUSSELLVILLE   CLEAR     50  48  93 CALM      30.18R
6HR MIN TEMP:  49; 6HR MAX TEMP:  54;

$$

ARZ036-221300-
EAST ARKANSAS

CITY           SKY/WX    TMP DP  RH WIND       PRES   REMARKS
WEST MEMPHIS   CLEAR     47  46  97 NE5       30.20R
6HR MIN TEMP:  47; 6HR MAX TEMP:  55;

$$

ARZ050-053-066-070-073-221300-
SOUTHWEST ARKANSAS

CITY           SKY/WX    TMP DP  RH WIND       PRES   REMARKS
ARKADELPHIA    FAIR      52  52 100 CALM      30.17R
6HR MIN TEMP:  51; 6HR MAX TEMP:  56;

CAMDEN         FOG       46  45  93 CALM      30.15R VSB 1/4
TEXARKANA      CLEAR     55  54  96 E6        30.14R FOG
6HR MIN TEMP:  53; 6HR MAX TEMP:  61;

EL DORADO      CLEAR     50  48  93 CALM      30.15R
6HR MIN TEMP:  49; 6HR MAX TEMP:  58;

DE QUEEN       FOG       54  54 100 CALM      30.14R VSB 1/2
6HR MIN TEMP:  54; 6HR MAX TEMP:  64;

$$

ARZ056-057-069-221300-
SOUTHEAST ARKANSAS

CITY           SKY/WX    TMP DP  RH WIND       PRES   REMARKS
PINE BLUFF     CLEAR     49  46  90 N3        30.17R
6HR MIN TEMP:  48; 6HR MAX TEMP:  55;

STUTTGART      CLEAR     52  46  82 NE7       30.19R
6HR MIN TEMP:  48; 6HR MAX TEMP:  55;

MONTICELLO     CLEAR     50  47  89 NE5       30.15R
6HR MIN TEMP:  48; 6HR MAX TEMP:  55;


$$





USA.gov is the U.S. government's official web portal to all federal, state and local government web resources and services.